Weather History for VDSR - April, 2014

Change the Weather History Date:

Friday, April 18, 2014

  Actual Average Record
Temperature  
Mean Temperature 88 °F -  
Max Temperature 95 °F - - ()
Min Temperature 80 °F - - ()
Cooling Degree Days 22    
Growing Degree Days 38 (Base 50)    
Moisture  
Dew Point 76 °F    
Average Humidity 68    
Maximum Humidity 89    
Minimum Humidity 46    
Precipitation  
Precipitation 0.00 in - - ()
Sea Level Pressure  
Sea Level Pressure 29.76 in    
Wind  
Wind Speed 5 mph ()    
Max Wind Speed 12 mph    
Max Gust Speed -    
Visibility 6.0 miles    
Events      
T = Trace of Precipitation, MM = Missing Value Source: Averaged Metar Reports

Daily Weather History Graph

Daily Weather History Graph

Search for Another Location

Airport or City:

Trip Planner

Search our weather history database for the weather conditions in past years. The results will help you decide how hot, cold, wet, or windy it might be!

Date:

Astronomy

Apr. 18, 2014 Rise Set
Actual Time 5:50 AM ICT 6:17 PM ICT
Civil Twilight 5:28 AM ICT 6:39 PM ICT
Nautical Twilight 5:03 AM ICT 7:05 PM ICT
Astronomical Twilight 4:37 AM ICT 7:30 PM ICT
Moon 9:10 PM ICT (4/18) 8:03 AM ICT (4/18)
Length of Visible Light 13h 11m
Length of Day
12h 27m
Waning Gibbous, 90% of the Moon is Illuminated
Apr 18
Waning Gibbous
Apr 22
Last Quarter
Apr 29
New
May 7
First Quarter
May 15
Full

Hourly Weather History & Observations

Time (ICT) Temp. Heat Index Dew Point Humidity Pressure Visibility Wind Dir Wind Speed Gust Speed Precip Events Conditions
12:00 AM 82.4 °F 90.9 °F 77.0 °F 84% 29.74 in 6.2 mi SSW 3.5 mph - N/A   Scattered Clouds
12:30 AM 82.4 °F 90.9 °F 77.0 °F 84% 29.74 in 6.2 mi SW 3.5 mph - N/A   Scattered Clouds
1:00 AM 80.6 °F 86.2 °F 75.2 °F 84% 29.74 in 6.2 mi WSW 3.5 mph - N/A   Scattered Clouds
7:00 AM 80.6 °F 87.1 °F 77.0 °F 89% 29.80 in 6.2 mi SSE 4.6 mph - N/A   Scattered Clouds
7:30 AM 82.4 °F 90.9 °F 77.0 °F 84% 29.80 in 6.2 mi SE 6.9 mph - N/A   Scattered Clouds
8:00 AM 84.2 °F 96.1 °F 78.8 °F 84% 29.83 in 6.2 mi ESE 6.9 mph - N/A   Scattered Clouds
8:30 AM 84.2 °F 96.1 °F 78.8 °F 84% 29.83 in 6.2 mi ESE 6.9 mph - N/A   Scattered Clouds
9:00 AM 86.0 °F 99.3 °F 78.8 °F 79% 29.83 in 6.2 mi ESE 9.2 mph - N/A   Scattered Clouds
9:30 AM 87.8 °F 99.7 °F 77.0 °F 70% 29.83 in 6.2 mi SE 6.9 mph - N/A   Scattered Clouds
10:00 AM 89.6 °F 102.2 °F 77.0 °F 66% 29.83 in 6.2 mi SSE 6.9 mph - N/A   Scattered Clouds
10:30 AM 87.8 °F 99.7 °F 77.0 °F 70% 29.83 in 6.2 mi SSE 5.8 mph - N/A   Scattered Clouds
11:00 AM 89.6 °F 99.8 °F 75.2 °F 62% 29.83 in 6.2 mi Variable 4.6 mph - N/A   Scattered Clouds
11:30 AM 89.6 °F 99.8 °F 75.2 °F 62% 29.83 in 6.2 mi East 5.8 mph - N/A   Scattered Clouds
12:00 PM 93.2 °F 105.0 °F 75.2 °F 56% 29.80 in 6.2 mi Variable 3.5 mph - N/A   Scattered Clouds
12:30 PM 93.2 °F 102.4 °F 73.4 °F 52% 29.77 in 6.2 mi Variable 3.5 mph - N/A   Scattered Clouds
1:00 PM 93.2 °F 102.4 °F 73.4 °F 52% 29.77 in 6.2 mi Variable 3.5 mph - N/A   Scattered Clouds
1:30 PM 93.2 °F 102.4 °F 73.4 °F 52% 29.74 in 6.2 mi South 5.8 mph - N/A   Scattered Clouds
2:00 PM 93.2 °F 102.4 °F 73.4 °F 52% 29.74 in 6.2 mi Variable 2.3 mph - N/A   Scattered Clouds
2:30 PM 95.0 °F 103.2 °F 71.6 °F 47% 29.71 in 6.2 mi Variable 2.3 mph - N/A   Scattered Clouds
3:00 PM 95.0 °F 103.2 °F 71.6 °F 47% 29.71 in 6.2 mi Variable 4.6 mph - N/A   Scattered Clouds
3:30 PM 95.0 °F 103.2 °F 71.6 °F 47% 29.68 in 6.2 mi SSE 6.9 mph - N/A   Scattered Clouds
4:00 PM 95.0 °F 103.2 °F 71.6 °F 47% 29.68 in 6.2 mi South 6.9 mph - N/A   Scattered Clouds
4:30 PM 93.2 °F 98.8 °F 69.8 °F 46% 29.68 in 6.2 mi SSE 9.2 mph - N/A   Scattered Clouds
5:00 PM 93.2 °F 102.4 °F 73.4 °F 52% 29.68 in 6.2 mi SSE 9.2 mph - N/A   Scattered Clouds
5:30 PM 91.4 °F 98.4 °F 71.6 °F 52% 29.71 in 6.2 mi SSE 9.2 mph - N/A   Scattered Clouds
6:00 PM 89.6 °F 98.2 °F 73.4 °F 59% 29.71 in 6.2 mi South 5.8 mph - N/A   Scattered Clouds
7:00 PM 87.8 °F 97.6 °F 75.2 °F 66% 29.71 in 5.6 mi SSE 4.6 mph - N/A   Unknown
7:30 PM 87.8 °F 99.7 °F 77.0 °F 70% 29.74 in 5.6 mi SSE 2.3 mph - N/A   Unknown
8:00 PM 86.0 °F 96.9 °F 77.0 °F 74% 29.77 in 5.6 mi South 2.3 mph - N/A   Unknown
9:00 PM 86.0 °F 96.9 °F 77.0 °F 74% 29.77 in 5.6 mi SE 2.3 mph - N/A   Unknown
9:30 PM 84.2 °F 96.1 °F 78.8 °F 84% 29.77 in 5.6 mi West 11.5 mph - N/A   Unknown
10:00 PM 84.2 °F 96.1 °F 78.8 °F 84% 29.77 in 5.6 mi WSW 5.8 mph - N/A   Unknown
10:30 PM 82.4 °F 92.4 °F 78.8 °F 89% 29.77 in 5.6 mi SSW 3.5 mph - N/A   Unknown
11:00 PM 82.4 °F 92.4 °F 78.8 °F 89% 29.80 in 5.6 mi West 3.5 mph - N/A   Unknown
11:30 PM 82.4 °F 92.4 °F 78.8 °F 89% 29.80 in 5.6 mi WSW 3.5 mph - N/A   Unknown